This is the latest recevied weather packets stored in our database for station/object W3JGB. If no packets are shown the sender has not sent any weather packets the latest 10 day(s).
| Time | Temp. | Humidity | Pressure | Rain* | Wind** | Luminosity | Snow |
|---|---|---|---|---|---|---|---|
| 1778207122 | 10.56° C | 66% | 1009.9 hPa | 0 mm | - | 0 W/m² | - |
| 1778206819 | 10.56° C | 64% | 1009.7 hPa | 0 mm | - | 0 W/m² | - |
| 1778206515 | 10.56° C | 66% | 1009.9 hPa | 0 mm | - | 0 W/m² | - |
| 1778206211 | 11.11° C | 61% | 1009.9 hPa | 0 mm | - | 0 W/m² | - |
| 1778205909 | 11.67° C | 62% | 1009.8 hPa | 0 mm | - | 0 W/m² | - |
| 1778205607 | 12.22° C | 58% | 1009.8 hPa | 0 mm | - | 0 W/m² | - |
| 1778205304 | 12.22° C | 58% | 1009.7 hPa | 0 mm | - | 0 W/m² | - |
| 1778205000 | 11.67° C | 59% | 1009.4 hPa | 0 mm | - | 0 W/m² | - |
| 1778204697 | 11.67° C | 62% | 1009.5 hPa | 0 mm | - | 0 W/m² | - |
| 1778204393 | 10.56° C | 66% | 1009.5 hPa | 0 mm | - | 0 W/m² | - |
| 1778204089 | 10.56° C | 79% | 1009.2 hPa | 0 mm | - | 0 W/m² | - |
| 1778203787 | 10.56° C | 77% | 1009.1 hPa | 0 mm | - | 0 W/m² | - |
| 1778203483 | 10.56° C | 76% | 1009.1 hPa | 0 mm | - | 0 W/m² | - |
| 1778203181 | 10.56° C | 76% | 1009 hPa | 0 mm | - | 0 W/m² | - |
| 1778202878 | 10.56° C | 73% | 1009 hPa | 0 mm | - | 0 W/m² | - |
| 1778202576 | 10.56° C | 75% | 1008.8 hPa | 0 mm | - | 0 W/m² | - |
| 1778202273 | 10.56° C | 74% | 1008.6 hPa | 0 mm | - | 0 W/m² | - |
| 1778201970 | 11.11° C | 73% | 1008.7 hPa | 0 mm | - | 0 W/m² | - |
| 1778201667 | 11.11° C | 71% | 1008.7 hPa | 0 mm | - | 0 W/m² | - |
| 1778201363 | 11.67° C | 71% | 1008.5 hPa | 0 mm | - | 0 W/m² | - |
| 1778201060 | 11.67° C | 67% | 1008.5 hPa | 0 mm | - | 0 W/m² | - |
| 1778200756 | 11.67° C | 65% | 1008.5 hPa | 0 mm | - | 0 W/m² | - |
| 1778200453 | 12.22° C | 64% | 1008.5 hPa | 0 mm | - | 0 W/m² | - |
| 1778200150 | 12.22° C | 56% | 1008.5 hPa | 0 mm | - | 0 W/m² | - |
| 1778199847 | 12.78° C | 53% | 1008.4 hPa | 0 mm | - | 0 W/m² | - |
* Rain latest hour (hover to see other rain measurements)
** Current wind speed in m/s (hover to see current wind gust speed)